"Pseudo-MPEC" for P22pBcw

Created 2026 Sep 5 0:35:09 UT using Find_Orb

Click here for an explanation of pseudo-MPECs

 
 Astrometry: 
     P22pBcw*0C2026 09 04.37600323 11 19.094+22 46 54.60   ~94BK 20.85wXNEOCPF52
     P22pBcw 0C2026 09 04.38681923 11 16.503+22 45 50.36   ~94BK 20.84wXNEOCPF52
     P22pBcw 0C2026 09 04.39762623 11 13.918+22 44 46.23   ~94BK 20.96wXNEOCPF52
     P22pBcw 0C2026 09 04.40847323 11 11.285+22 43 41.06   ~94BK 20.86wXNEOCPF52
     P22pBcw 0C2026 09 04.47420223 10 55.402+22 37 06.41   ~94MZ 20.50GVNEOCPF52
     P22pBcw 0C2026 09 04.47483523 10 55.251+22 37 02.57   ~94MZ 20.54GVNEOCPF52
     P22pBcw 0C2026 09 04.47546823 10 55.116+22 36 58.92   ~94MZ 20.84GVNEOCPF52
     P22pBcw 0C2026 09 04.47610123 10 54.971+22 36 54.98   ~94MZ 20.78GVNEOCPF52
     P22pBcw KB2026 09 04.78798223 09 48.77 +22 04 53.8    ~94Jo 20.9 VZNEOCP106
     P22pBcw KB2026 09 04.79508123 09 47.16 +22 04 11.5    ~94Jo       ZNEOCP106
     P22pBcw KB2026 09 04.80207423 09 45.53 +22 03 29.4    ~94Jo       ZNEOCP106
     P22pBcw KB2026 09 04.80826323 09 44.17 +22 02 51.5    ~94Jo 20.8 VZNEOCP106
     P22pBcw KC2026 09 04.86874223 09 30.25 +21 56 44.2    ~950K       VNEOCP587
     P22pBcw KC2026 09 04.87368123 09 29.10 +21 56 15.1    ~950K 20.9 GVNEOCP587
     P22pBcw KB2026 09 04.89203723 09 25.13 +21 54 22.0    ~94M5 20.3 GXNEOCPI93
     P22pBcw KB2026 09 04.89762823 09 23.83 +21 53 47.8    ~94M5 21.1 GXNEOCPI93
     P22pBcw KB2026 09 04.90321523 09 22.54 +21 53 14.0    ~94M5 20.6 GXNEOCPI93
     P22pBcw KB2026 09 04.96563 23 09 06.74 +21 46 51.2    ~950Z 19.9 GXNEOCPL04
     P22pBcw KB2026 09 04.99954 23 08 58.68 +21 43 21.5    ~950Z 19.8 GXNEOCPL04

Station data:
(106) Črni Vrh  (N45.945905 E14.071100)  Slovenia.  Observer J. Skvarč. 0.6-m
   f/3.3 Deltagraph + CCD.
(587) Sormano  (N45.882946 E9.229180)  Italy.  Observers E. Colzani, E. Valli.
    Measurer P. Sicoli. 0.5-m f/6.8 reflector + CCD.
(F52) Pan-STARRS 2, Haleakala  (N20.707382 W156.255910)  US/Hawaii.
   Observers J. Herman, T. Lowe, P. Minguez, A. Schultz, I. Smith. Measurers
   K. Chambers, T. de Boer, J. Fairlamb, H. Gao, M. Huber, C.-C. Lin, E.
   Magnier, Y. Ramanjooloo, R. Wainscoat, R. Weryk. 1.8-m Ritchey-Chrétien +
   CCD.
(I93) St Pardon de Conques  (N44.558670 W0.202960)  France.  Observers F.
   Losse, W. D'Anna. Measurer F. Losse. 0.40-m f/3.7 reflector + CCD.
(L04) ROASTERR-1 Observatory, Cluj-Napoca  (N46.820952 E23.596400)  Romania.
   Observer L. Hudin. 0.1-m f/9 refractor + CCD.

Orbital elements:  P22pBcw
   Perihelion 2026 Apr 7.770877 +/- 0.96 TT = 18:30:03.7 (JD 2461138.270877)
Epoch 2026 Sep  5.0 TT = JDT 2461288.5   Earth MOID: 0.1458      AutoNEOCP
M 179.636131126 +/- 1.2             (J2000 ecliptic)
n   1.195747715 +/- 0.000929        Peri.  349.833682 +/- 0.6
a   0.879109573 +/- 0.000455        Node   173.884382 +/- 0.08
e   0.32707643 +/- 0.00118          Incl.   20.855234 +/- 0.19
P   0.824/301.061d         H 23.04  G  0.15   U  8.1
q 0.591573548 +/- 0.00125    Q 1.166645598 +/- 0.000815
From 19 observations 2026 Sept. 4-5 (15.0 hr); mean residual 0".24
Residuals in arcseconds: 
260904 F52  .06-  .15-    260904 F52  .24+  .06+    260904 I93  .18-  .20-    
260904 F52  .02-  .05-    260904 106  .23-  .54-    260904 I93  .06-  .37-    
260904 F52  .15+  .22+    260904 106  .06-  .02+    260904 I93  .23+  .15-    
260904 F52  .13-  .20-    260904 106  .45-  .17+    260904 L04  .07+  .09+    
260904 F52  .15-  .02+    260904 106  .41+  .32-    260904 L04  .08-  .16+    
260904 F52  .12-  .00     260904 587  .05+  .16-    
260904 F52  .13+  .18+    260904 587  .13+  .78+    

Ephemerides (geocentric):
Date (UTC) HH   RA             Dec           delta  r     elong  mag " sig PA
---- --------  ------------   ------------  ------ ------ -----  --- --------
2026 09 05 01  23 08 50.145   +21 39 22.65  .17720 1.1666 151.1 20.8 .163 147
2026 09 05 02  23 08 40.867   +21 35 04.81  .17708 1.1666 151.2 20.8 .171 146
2026 09 05 03  23 08 31.584   +21 30 46.47  .17695 1.1666 151.3 20.8 .179 146
2026 09 05 04  23 08 22.296   +21 26 27.65  .17683 1.1666 151.4 20.7 .186 145
2026 09 05 05  23 08 13.004   +21 22 08.33  .17671 1.1666 151.5 20.7 .193 144
2026 09 05 06  23 08 03.707   +21 17 48.52  .17659 1.1666 151.6 20.7 .200 143
2026 09 05 07  23 07 54.405   +21 13 28.21  .17647 1.1666 151.7 20.7 .207 141
2026 09 05 08  23 07 45.098   +21 09 07.42  .17634 1.1666 151.8 20.7 .213 140
2026 09 05 09  23 07 35.786   +21 04 46.14  .17622 1.1666 151.9 20.7 .220 139
2026 09 05 10  23 07 26.470   +21 00 24.37  .17610 1.1666 152.0 20.7 .226 137
2026 09 05 11  23 07 17.149   +20 56 02.11  .17598 1.1666 152.1 20.7 .232 136
2026 09 05 12  23 07 07.824   +20 51 39.36  .17586 1.1666 152.2 20.7 .238 134
2026 09 05 13  23 06 58.494   +20 47 16.12  .17575 1.1666 152.3 20.7 .244 133
2026 09 05 14  23 06 49.160   +20 42 52.40  .17563 1.1666 152.4 20.7 .250 131
2026 09 05 15  23 06 39.821   +20 38 28.19  .17551 1.1666 152.4 20.7 .256 130
2026 09 05 16  23 06 30.478   +20 34 03.50  .17539 1.1666 152.5 20.7 .262 128
2026 09 05 17  23 06 21.130   +20 29 38.32  .17527 1.1666 152.6 20.7 .268 126
2026 09 05 18  23 06 11.778   +20 25 12.66  .17516 1.1666 152.7 20.7 .275 124
2026 09 05 19  23 06 02.422   +20 20 46.52  .17504 1.1666 152.8 20.7 .281 122
2026 09 05 20  23 05 53.062   +20 16 19.89  .17493 1.1666 152.9 20.7 .288 120
2026 09 05 21  23 05 43.697   +20 11 52.79  .17481 1.1666 153.0 20.7 .295 118
2026 09 05 22  23 05 34.328   +20 07 25.20  .17470 1.1666 153.1 20.7 .302 116
2026 09 05 23  23 05 24.955   +20 02 57.14  .17458 1.1666 153.2 20.7 .310 114
2026 09 06 00  23 05 15.578   +19 58 28.60  .17447 1.1666 153.3 20.7 .318 112
2026 09 06 01  23 05 06.197   +19 53 59.57  .17436 1.1666 153.4 20.7 .326 110
2026 09 06 02  23 04 56.812   +19 49 30.08  .17424 1.1666 153.5 20.7 .335 108
2026 09 06 03  23 04 47.423   +19 45 00.11  .17413 1.1666 153.6 20.7 .344 106
2026 09 06 04  23 04 38.030   +19 40 29.66  .17402 1.1666 153.7 20.7 .354 104
2026 09 06 05  23 04 28.633   +19 35 58.74  .17391 1.1666 153.8 20.7 .364 102
2026 09 06 06  23 04 19.232   +19 31 27.34  .17380 1.1666 153.9 20.6 .375 100
2026 09 06 07  23 04 09.828   +19 26 55.48  .17369 1.1666 154.0 20.6 .386  98
2026 09 06 08  23 04 00.420   +19 22 23.14  .17358 1.1666 154.1 20.6 .398  96
2026 09 06 09  23 03 51.008   +19 17 50.33  .17347 1.1666 154.2 20.6 .411  94
2026 09 06 10  23 03 41.592   +19 13 17.06  .17336 1.1666 154.3 20.6 .425  93
2026 09 06 11  23 03 32.173   +19 08 43.31  .17325 1.1666 154.4 20.6 .439  91
2026 09 06 12  23 03 22.750   +19 04 09.10  .17314 1.1666 154.4 20.6 .453  89
2026 09 06 13  23 03 13.324   +18 59 34.43  .17303 1.1666 154.5 20.6 .469  87
2026 09 06 14  23 03 03.894   +18 54 59.29  .17293 1.1666 154.6 20.6 .485  85
2026 09 06 15  23 02 54.461   +18 50 23.68  .17282 1.1666 154.7 20.6 .502  84
2026 09 06 16  23 02 45.024   +18 45 47.62  .17271 1.1666 154.8 20.6 .519  82
2026 09 06 17  23 02 35.584   +18 41 11.09  .17261 1.1666 154.9 20.6 .538  81
2026 09 06 18  23 02 26.141   +18 36 34.10  .17250 1.1666 155.0 20.6 .557  79
2026 09 06 19  23 02 16.695   +18 31 56.65  .17240 1.1666 155.1 20.6 .577  78
2026 09 06 20  23 02 07.245   +18 27 18.75  .17229 1.1666 155.2 20.6 .597  76
2026 09 06 21  23 01 57.792   +18 22 40.38  .17219 1.1666 155.3 20.6 .619  75
2026 09 06 22  23 01 48.336   +18 18 01.57  .17209 1.1666 155.4 20.6 .641  73
2026 09 06 23  23 01 38.876   +18 13 22.29  .17199 1.1665 155.5 20.6 .664  72
2026 09 07 00  23 01 29.414   +18 08 42.57  .17188 1.1665 155.6 20.6 .687  71